THOR ABLESTAR DEB, 559

Orbit data source: Space-Track

THOR ABLESTAR DEB, 559 is space debris in LEO originally from a launch on Thu, 29 Jun 1961 UTC launched from the Air Force Eastern Test Range (AFETR). Debris objects in space refer to the collection of defunct objects orbiting the Earth. Examples of debris include non-operational satellites, rocket bodies, and fragments generated from explosions, collisions, or faulty payload assembly.

Loading next visibility...
Identifier
559, 1961-015GR
Orbit
LEO
Country
Flag of USUS
Related business
Manufacturer
Unknown
Mission
Spacecraft
Bus & Motor
Unknown
Mass
Unknown
Launch date (UTC)
1961-06-29 (65 years ago)
Launch vehicle
Unknown
Launch site
Air Force Eastern Test Range (AFETR)
Object type
Payload
Rocket body
Debris
Shape & HBR
Unknown shape, 0.1 m
Radar Cross Section
Medium (>0.1 m² and <1 m²)

Expand to show TLE details & history
Last TLE update: 6 days ago

TLE from 6 days ago
0 THOR ABLESTAR DEB
1 00559U 61015GR  26154.61175218  .00009496  00000-0  14604-2 0  9996
2 00559  66.5990 329.7389 0040082 178.6213 181.5025 14.73335548347772
Epoch: 2026-06-03T14:40Z
TLE epoch observation values (Epoch: 2026-06-03T14:40:55.388Z)
Latitude
0.00003°
Longitude
-142.55975°
Altitude
680.747 km
Speed
7.502 km/s
True Right ascension
21h 58m 57s
True Declination
0° 00' 00"
Sunlit
Object was in daylight at epoch
Visualization orbit readout
Latitude
Unknown
Longitude
Unknown
Altitude
Unknown
Speed
Unknown
Apparent Right ascension
Unknown
Apparent Declination
Unknown
Sunlit
N/A
Visualization observer readout
Local Sidereal Time
06:09:12
Azimuth
Unknown
Elevation
Unknown
Doppler factor
Unknown
Orbital elements
Apogee altitude
676.959 km
Perigee altitude
620.629 km
Semi-major axis
7,026.931 km
Eccentricity
0.00401
Inclination
66.599°
RAAN
329.7389°
Arg. of periapsis
178.6213°
True anomaly
181.49052°
Mean anomaly
181.5025°
Eccentric anomaly
181.4965°
Mean motion
3.68464 °/min
Orbital period
97.7 mins
BSTAR
0.0014604
Loading maneuver chart data...
Computing Atmospheric mass density...
Loading historical data...
Loading historical data...
Loading historical data...
Loading historical data...
Loading historical data...
Loading historical data...
Loading historical data...

Documentation

Showing up to 5 results
|